Radiation Dose at Monitoring Post of Fukushima Daini Nuclear Power Station
Date,Time,MP-1(microSv/h),MP-2(microSv/h),MP-3(microSv/h),MP-4(microSv/h),MP-5(microSv/h),MP-6(microSv/h),MP-7(microSv/h),Wind Direction,Wind Velocity(m/s),Rain
2024/02/22,00:00,0.147,0.134,0.208,0.195,0.206,0.119,0.081,northwest,8.8,Yes
2024/02/22,00:10,0.147,0.133,0.208,0.195,0.206,0.119,0.080,northwest,9.2,Yes
2024/02/22,00:20,0.146,0.133,0.207,0.195,0.205,0.119,0.079,north-northwest,9.8,Yes
2024/02/22,00:30,0.145,0.132,0.205,0.194,0.205,0.118,0.079,north-northwest,10.1,No
2024/02/22,00:40,0.145,0.131,0.207,0.196,0.205,0.116,0.078,north-northwest,7.6,Yes
2024/02/22,00:50,0.145,0.131,0.206,0.194,0.204,0.116,0.077,north-northwest,10.1,No
2024/02/22,01:00,0.144,0.130,0.204,0.193,0.203,0.116,0.077,north-northwest,9.8,Yes
2024/02/22,01:10,0.144,0.130,0.204,0.192,0.204,0.115,0.076,north-northwest,9.0,Yes
2024/02/22,01:20,0.143,0.130,0.204,0.193,0.203,0.115,0.075,north-northwest,9.2,Yes
2024/02/22,01:30,0.144,0.130,0.205,0.194,0.203,0.115,0.077,northwest,9.0,Yes
2024/02/22,01:40,0.144,0.130,0.204,0.193,0.203,0.115,0.076,northwest,9.0,Yes
2024/02/22,01:50,0.144,0.130,0.204,0.193,0.205,0.116,0.076,north-northwest,9.2,Yes
2024/02/22,02:00,0.143,0.130,0.205,0.192,0.203,0.115,0.076,north-northwest,9.2,Yes
2024/02/22,02:10,0.144,0.130,0.205,0.194,0.204,0.115,0.076,northwest,9.0,Yes
2024/02/22,02:20,0.145,0.131,0.205,0.194,0.204,0.116,0.077,northwest,8.7,Yes
2024/02/22,02:30,0.146,0.131,0.206,0.194,0.205,0.117,0.077,northwest,9.0,Yes
2024/02/22,02:40,0.145,0.132,0.206,0.194,0.205,0.116,0.077,northwest,8.4,Yes
2024/02/22,02:50,0.146,0.132,0.206,0.194,0.205,0.117,0.078,north-northwest,8.2,Yes
2024/02/22,03:00,0.145,0.131,0.206,0.195,0.204,0.117,0.078,north-northwest,8.7,Yes
2024/02/22,03:10,0.147,0.131,0.207,0.195,0.205,0.117,0.078,north-northwest,8.5,Yes
2024/02/22,03:20,0.147,0.132,0.207,0.194,0.206,0.118,0.078,north-northwest,8.4,No
2024/02/22,03:30,0.146,0.131,0.205,0.195,0.206,0.117,0.078,northwest,8.6,No
2024/02/22,03:40,0.145,0.131,0.205,0.194,0.206,0.117,0.078,northwest,8.9,No
2024/02/22,03:50,0.145,0.132,0.206,0.193,0.203,0.117,0.077,north-northwest,7.3,No
2024/02/22,04:00,0.145,0.131,0.205,0.195,0.204,0.116,0.077,north-northwest,8.2,Yes
2024/02/22,04:10,0.146,0.131,0.206,0.194,0.205,0.117,0.076,northwest,8.1,Yes
2024/02/22,04:20,0.145,0.132,0.208,0.194,0.205,0.117,0.077,north-northwest,7.8,Yes
2024/02/22,04:30,0.147,0.132,0.207,0.195,0.205,0.117,0.078,north-northwest,8.5,Yes
2024/02/22,04:40,0.147,0.133,0.208,0.197,0.206,0.118,0.079,north-northwest,9.2,Yes
2024/02/22,04:50,0.147,0.134,0.208,0.196,0.208,0.118,0.079,north-northwest,8.5,Yes
2024/02/22,05:00,0.148,0.134,0.208,0.197,0.207,0.119,0.080,northwest,7.7,Yes
2024/02/22,05:10,0.148,0.134,0.208,0.197,0.207,0.119,0.079,north-northwest,9.2,Yes
2024/02/22,05:20,0.148,0.134,0.208,0.194,0.206,0.119,0.079,north-northwest,8.5,Yes
2024/02/22,05:30,0.147,0.133,0.206,0.195,0.206,0.118,0.079,north-northwest,8.1,Yes
2024/02/22,05:40,0.148,0.133,0.207,0.196,0.207,0.118,0.078,north-northwest,8.7,Yes
2024/02/22,05:50,0.147,0.133,0.207,0.197,0.206,0.118,0.079,northwest,7.6,Yes
2024/02/22,06:00,0.147,0.133,0.208,0.196,0.207,0.119,0.078,north-northwest,8.4,Yes
2024/02/22,06:10,0.149,0.135,0.210,0.198,0.208,0.121,0.081,north-northwest,8.4,Yes
2024/02/22,06:20,0.151,0.136,0.211,0.201,0.211,0.122,0.082,north-northwest,8.1,Yes
2024/02/22,06:30,0.152,0.139,0.213,0.201,0.211,0.123,0.084,north-northwest,8.1,Yes
2024/02/22,06:40,0.153,0.139,0.213,0.202,0.212,0.125,0.084,north-northwest,8.1,Yes
2024/02/22,06:50,0.155,0.140,0.215,0.203,0.212,0.125,0.086,north-northwest,8.9,Yes
2024/02/22,07:00,0.158,0.142,0.216,0.203,0.214,0.128,0.087,north-northwest,8.5,Yes
2024/02/22,07:10,0.158,0.144,0.218,0.206,0.215,0.130,0.090,north-northwest,8.4,Yes
2024/02/22,07:20,0.160,0.144,0.219,0.208,0.216,0.131,0.091,north-northwest,8.1,Yes
2024/02/22,07:30,0.160,0.145,0.219,0.206,0.217,0.131,0.091,north-northwest,8.4,Yes
2024/02/22,07:40,0.159,0.145,0.219,0.206,0.216,0.131,0.091,north-northwest,9.2,Yes
2024/02/22,07:50,0.158,0.144,0.218,0.206,0.216,0.131,0.092,north-northwest,9.2,Yes
2024/02/22,08:00,0.158,0.143,0.218,0.205,0.215,0.131,0.091,north-northwest,7.4,Yes
2024/02/22,08:10,0.158,0.143,0.217,0.204,0.214,0.131,0.090,north-northwest,9.5,Yes
2024/02/22,08:20,0.158,0.142,0.216,0.205,0.214,0.131,0.090,north-northwest,8.1,Yes
2024/02/22,08:30,0.158,0.143,0.217,0.204,0.215,0.130,0.091,north-northwest,6.7,Yes
2024/02/22,08:40,0.159,0.144,0.217,0.205,0.214,0.132,0.092,north-northwest,7.8,Yes
2024/02/22,08:50,0.159,0.144,0.216,0.206,0.215,0.132,0.091,north-northwest,7.0,Yes
2024/02/22,09:00,0.158,0.144,0.216,0.203,0.214,0.132,0.093,north-northwest,6.6,Yes
2024/02/22,09:10,0.159,0.144,0.215,0.204,0.214,0.132,0.091,north-northwest,6.8,Yes
2024/02/22,09:20,0.158,0.143,0.215,0.203,0.213,0.132,0.092,north-northwest,8.2,Yes
2024/02/22,09:30,0.157,0.143,0.215,0.202,0.213,0.132,0.092,north-northwest,8.1,Yes
2024/02/22,09:40,0.157,0.142,0.212,0.203,0.213,0.132,0.092,northwest,7.3,Yes
2024/02/22,09:50,0.156,0.141,0.213,0.202,0.211,0.132,0.092,north-northwest,7.0,Yes
2024/02/22,10:00,0.156,0.141,0.213,0.200,0.210,0.130,0.091,north-northwest,6.8,Yes
2024/02/22,10:10,0.154,0.141,0.213,0.200,0.211,0.131,0.090,north-northwest,6.5,Yes
2024/02/22,10:20,0.154,0.142,0.212,0.199,0.209,0.130,0.091,north-northwest,7.1,Yes
2024/02/22,10:30,0.154,0.141,0.209,0.198,0.209,0.129,0.090,north-northwest,7.1,Yes
2024/02/22,10:40,0.154,0.140,0.209,0.197,0.208,0.128,0.089,north-northwest,5.8,Yes
2024/02/22,10:50,0.153,0.140,0.209,0.196,0.207,0.127,0.088,north-northwest,6.2,Yes
2024/02/22,11:00,0.151,0.139,0.208,0.195,0.207,0.126,0.087,north-northwest,6.8,Yes
2024/02/22,11:10,0.151,0.138,0.207,0.194,0.205,0.126,0.088,north-northwest,6.0,Yes
2024/02/22,11:20,0.150,0.136,0.206,0.193,0.205,0.126,0.086,north-northwest,6.6,Yes
2024/02/22,11:30,0.150,0.136,0.205,0.193,0.204,0.126,0.086,north-northwest,6.7,Yes
2024/02/22,11:40,0.149,0.135,0.205,0.194,0.205,0.124,0.086,north-northwest,6.2,Yes
2024/02/22,11:50,0.150,0.135,0.205,0.191,0.203,0.123,0.085,north-northwest,6.3,Yes
2024/02/22,12:00,0.148,0.135,0.202,0.192,0.202,0.122,0.083,north-northwest,5.5,Yes
2024/02/22,12:10,0.148,0.135,0.203,0.191,0.201,0.122,0.083,north-northwest,5.8,Yes
2024/02/22,12:20,0.146,0.134,0.202,0.189,0.201,0.121,0.083,north-northwest,5.4,Yes
2024/02/22,12:30,0.147,0.132,0.202,0.188,0.201,0.121,0.083,north-northwest,6.2,Yes
2024/02/22,12:40,0.145,0.132,0.201,0.188,0.198,0.120,0.082,north-northwest,7.3,Yes
2024/02/22,12:50,0.144,0.131,0.200,0.187,0.198,0.119,0.080,north-northwest,7.3,Yes
2024/02/22,13:00,0.144,0.131,0.199,0.187,0.198,0.119,0.079,north-northwest,5.9,Yes
2024/02/22,13:10,0.144,0.131,0.199,0.186,0.198,0.117,0.080,north-northwest,6.2,Yes
2024/02/22,13:20,0.142,0.130,0.198,0.185,0.198,0.117,0.078,north-northwest,6.5,No
2024/02/22,13:30,0.142,0.128,0.198,0.185,0.196,0.115,0.077,north-northwest,6.1,No
2024/02/22,13:40,0.141,0.127,0.195,0.184,0.195,0.114,0.078,north-northwest,6.4,No
2024/02/22,13:50,0.140,0.127,0.196,0.183,0.195,0.113,0.076,north-northwest,6.3,No
2024/02/22,14:00,0.141,0.126,0.195,0.183,0.194,0.112,0.075,north-northwest,5.9,No
2024/02/22,14:10,0.139,0.127,0.194,0.182,0.194,0.112,0.075,north-northwest,6.5,No
2024/02/22,14:20,0.139,0.126,0.194,0.182,0.192,0.112,0.074,north-northwest,6.5,No
2024/02/22,14:30,0.139,0.125,0.193,0.181,0.193,0.112,0.074,north-northwest,6.1,No
2024/02/22,14:40,0.139,0.124,0.194,0.182,0.194,0.112,0.074,north-northwest,6.0,No
2024/02/22,14:50,0.138,0.125,0.195,0.182,0.193,0.111,0.074,north-northwest,6.0,No
2024/02/22,15:00,0.139,0.125,0.194,0.181,0.193,0.111,0.074,north-northwest,6.6,No
2024/02/22,15:10,0.139,0.125,0.193,0.183,0.193,0.110,0.073,north-northwest,5.6,No
2024/02/22,15:20,0.139,0.125,0.194,0.181,0.192,0.110,0.073,north,6.1,No
2024/02/22,15:30,0.138,0.124,0.194,0.181,0.193,0.111,0.074,north-northwest,4.6,No
2024/02/22,15:40,0.138,0.126,0.194,0.182,0.193,0.111,0.073,north-northwest,4.8,No
2024/02/22,15:50,0.139,0.125,0.194,0.181,0.193,0.111,0.073,north-northwest,5.3,No
2024/02/22,16:00,0.138,0.125,0.196,0.182,0.192,0.111,0.073,north-northwest,5.0,No
2024/02/22,16:10,0.139,0.125,0.193,0.182,0.192,0.112,0.073,northwest,4.8,No
2024/02/22,16:20,0.140,0.126,0.194,0.182,0.192,0.111,0.073,north-northwest,5.2,No
2024/02/22,16:30,0.139,0.126,0.195,0.182,0.192,0.111,0.073,north-northwest,5.0,No
2024/02/22,16:40,0.139,0.126,0.195,0.183,0.193,0.112,0.074,north-northwest,5.2,No
2024/02/22,16:50,0.139,0.126,0.195,0.183,0.194,0.111,0.073,north-northwest,5.3,No
2024/02/22,17:00,0.140,0.126,0.196,0.183,0.194,0.111,0.074,north-northwest,5.2,No
2024/02/22,17:10,0.139,0.126,0.195,0.183,0.193,0.111,0.074,north-northwest,4.8,No
2024/02/22,17:20,0.139,0.125,0.195,0.183,0.193,0.111,0.074,north-northwest,4.7,No
2024/02/22,17:30,0.139,0.124,0.195,0.184,0.193,0.111,0.073,north-northwest,5.2,No
2024/02/22,17:40,0.139,0.126,0.195,0.183,0.195,0.112,0.074,north-northwest,5.5,No
2024/02/22,17:50,0.139,0.126,0.197,0.182,0.194,0.112,0.074,north-northwest,5.6,No
2024/02/22,18:00,0.139,0.125,0.196,0.182,0.195,0.111,0.074,north-northwest,5.2,No
2024/02/22,18:10,0.140,0.126,0.197,0.182,0.194,0.112,0.073,north-northwest,4.5,No
2024/02/22,18:20,0.140,0.126,0.196,0.184,0.193,0.112,0.074,north-northwest,5.0,No
2024/02/22,18:30,0.140,0.126,0.196,0.185,0.194,0.112,0.074,north-northwest,6.1,No
2024/02/22,18:40,0.140,0.125,0.195,0.183,0.194,0.112,0.074,north-northwest,5.0,No
2024/02/22,18:50,0.139,0.126,0.196,0.184,0.194,0.111,0.074,north-northwest,4.3,No
2024/02/22,19:00,0.140,0.126,0.196,0.183,0.194,0.111,0.073,north,4.3,No
2024/02/22,19:10,0.140,0.125,0.197,0.183,0.195,0.111,0.074,north,4.6,No
2024/02/22,19:20,0.140,0.126,0.197,0.185,0.193,0.112,0.074,north,5.2,No
2024/02/22,19:30,0.140,0.125,0.196,0.184,0.195,0.111,0.074,north-northwest,5.0,No
2024/02/22,19:40,0.140,0.126,0.197,0.184,0.196,0.112,0.074,north-northwest,4.3,No
2024/02/22,19:50,0.140,0.125,0.196,0.183,0.195,0.112,0.074,north-northwest,4.6,No
2024/02/22,20:00,0.140,0.126,0.197,0.185,0.194,0.112,0.073,north-northwest,4.9,No
2024/02/22,20:10,0.140,0.125,0.197,0.184,0.194,0.112,0.075,north,5.0,No
2024/02/22,20:20,0.139,0.126,0.197,0.184,0.196,0.112,0.074,north,5.4,No
2024/02/22,20:30,0.140,0.127,0.197,0.185,0.195,0.112,0.074,north-northwest,5.2,No
2024/02/22,20:40,0.140,0.126,0.198,0.183,0.194,0.112,0.074,north-northwest,5.4,No
2024/02/22,20:50,0.140,0.126,0.197,0.184,0.195,0.112,0.074,north-northwest,5.6,No
2024/02/22,21:00,0.141,0.126,0.197,0.184,0.194,0.112,0.074,north-northwest,4.9,No
2024/02/22,21:10,0.140,0.126,0.197,0.184,0.196,0.111,0.074,north-northwest,4.7,No
2024/02/22,21:20,0.141,0.126,0.198,0.185,0.195,0.112,0.074,north-northwest,5.0,No
2024/02/22,21:30,0.140,0.127,0.197,0.185,0.195,0.112,0.075,north-northwest,4.2,No
2024/02/22,21:40,0.141,0.126,0.199,0.186,0.195,0.113,0.074,north-northwest,3.8,No
2024/02/22,21:50,0.140,0.127,0.197,0.185,0.196,0.112,0.075,northwest,3.7,No
2024/02/22,22:00,0.140,0.127,0.198,0.185,0.196,0.112,0.074,north-northwest,4.3,No
2024/02/22,22:10,0.140,0.127,0.198,0.185,0.195,0.113,0.074,north-northwest,4.5,No
2024/02/22,22:20,0.141,0.127,0.199,0.186,0.196,0.112,0.074,north-northwest,5.4,No
2024/02/22,22:30,0.141,0.126,0.198,0.185,0.196,0.113,0.074,north-northwest,4.6,No
2024/02/22,22:40,0.141,0.126,0.198,0.185,0.196,0.113,0.074,northwest,5.2,No
2024/02/22,22:50,0.140,0.126,0.197,0.186,0.195,0.112,0.074,north-northwest,5.6,No
2024/02/22,23:00,0.141,0.127,0.198,0.186,0.197,0.113,0.074,northwest,5.0,No
2024/02/22,23:10,0.141,0.127,0.199,0.185,0.195,0.113,0.074,north-northwest,4.5,No
2024/02/22,23:20,0.141,0.127,0.198,0.185,0.196,0.112,0.074,north-northwest,4.1,No
2024/02/22,23:30,0.141,0.126,0.199,0.185,0.196,0.112,0.074,northwest,4.5,No
2024/02/22,23:40,0.141,0.127,0.198,0.186,0.196,0.113,0.074,north-northwest,4.8,No
2024/02/22,23:50,0.141,0.126,0.199,0.185,0.197,0.112,0.075,north-northwest,4.8,No
